Other Public Products
Issued by NWS Charleston, SC

Current Version | Previous Version | Graphics & Text | Print | Product List | Glossary On
Versions: 1 2 3 4 5 6 7 8 9 10 11 12 13 14 15 16 17 18 19 20 21 22 23 24 25 26 27 28 29 30 31 32 33 34 35 36 37 38 39 40 41 42 43 44 45 46 47 48 49 50
000 FPUS82 KCHS 240827 OPUCHS TEST...KCHS/KSAV Gateway Observations...TEST National Weather Service Charleston SC 400 AM EDT MON JUL 24 2017 NOTE: "fair" indicates few or no clouds below 12,000 feet with no significant weather and/or obstructions to visibility. SCZ050-WAZ558-NCZ071-TXZ119-213-PAZ071-DCZ001-FLZ074-172-MI076- NYZ176-178-MAZ016-IL014-TNZ027-NJZ106-GAZ044-MD014-240900- ...Gateway Observations for Charleston International... CITY SKY/WX TMP DP RH WIND PRES REMARKS Chas Airport MOCLDY 79 73 82 SW8 29.91S Seattle CLEAR 62 54 74 N6 30.04R Charlotte CLOUDY 74 69 85 S6 29.88R Dallas DFW RAIN 75 73 93 W10 29.92F Dallas Love LGT RAIN 74 72 93 W9 29.92F Philladelphia LGT RAIN 72 70 93 E6 29.76S Wash National CLOUDY 76 73 91 SW5 29.73F Baltimore MOCLDY 72 72 100 S3 29.72F Miami PTCLDY 83 75 77 CALM 30.01S HX 90 Detroit CLOUDY 67 64 90 NW7 29.81S Newark CLOUDY 74 65 73 E14G21 29.77F Laguardia CLOUDY 72 68 87 E9 29.79S J F K LGT RAIN 72 68 87 E14 29.80F Boston Logan CLOUDY 64 59 83 E6 29.93F Ft. Lauderdale PTCLDY 82 77 84 CALM 30.00F HX 90 Chicago O`Hare CLOUDY 68 60 75 N16 29.92R Chicago Midway CLOUDY 70 62 76 N12 29.91R Houston Bush CLOUDY 82 75 79 S6 29.94R Houston Hobby CLOUDY 83 75 77 SW6 29.94R HX 90 Nashville CLOUDY 72 69 90 S8 29.91F Atlanta MOCLDY 76 73 91 SW7 29.94F $$ GAZ044-118-TXZ119-213-NCZ071-DCZ001-MDZ014-506-PAZ021-071-NJZ106- NYZ176-178-MAZ106-OHZ011-021-055-MIZ076-KYZ091-ILZ014-INZ047- MNZ060-ONZ431-240900- ...Gateway Observations for Savannah International... CITY SKY/WX TMP DP RH WIND PRES REMARKS Savannah Arpt MOCLDY N/A N/A N/A SW10 29.95R Atlanta MOCLDY 76 73 91 SW7 29.94F Charlotte CLOUDY 74 69 85 S6 29.88R Dallas DFW RAIN 75 73 93 W10 29.92F Houston Bush CLOUDY 82 75 79 S6 29.94R Wash National CLOUDY 76 73 91 SW5 29.73F Wash Dulles CLOUDY 74 72 93 CALM 29.74F Baltimore MOCLDY 72 72 100 S3 29.72F Philadelphia LGT RAIN 72 70 93 E6 29.76S Newark CLOUDY 74 65 73 E14G21 29.77F Laguardia CLOUDY 72 68 87 E9 29.79S J F K LGT RAIN 72 68 87 E14 29.80F Boston CLOUDY 64 59 83 E6 29.93F Pittsburg CLOUDY 68 67 96 SW7 29.80S Akron PTCLDY 67 63 87 W5 29.81S Cleveland PTCLDY 69 65 86 S7 29.80S Cincinnati PTCLDY 71 71 100 SW5 29.86S Columbus CLEAR 65 65 100 S3 29.82F Detroit CLOUDY 67 64 90 NW7 29.81S Chicago O`Hare CLOUDY 68 60 75 N16 29.92R Minneapolis CLEAR 62 56 80 NE3 30.04S Indianapolis CLEAR 69 67 93 W7 29.86S Toronto Canada CLOUDY 68 57 68 N5 29.71F $$

USA.gov is the U.S. government's official web portal to all federal, state and local government web resources and services.